,,,PA_Meas_PMT16A,,PR_Meas_QMR101_102,,RH_Meas_QMH101,,SR_Meas_QMS101,,TA_Meas_QMH101,,GenWind,,GenWind,
date,time,status,PA,status,PR,status,RH,status,SR,status,TA,status,DirAvg,status,SpdAvg,
2009-04-01, 00:00:05,VALID,1003.83,VALID,0,VALID,92.2332,VALID,0,VALID,24.6556,VALID,352,VALID,0.271875,
2009-04-01, 00:01:05,VALID,1003.81,VALID,0,VALID,92.1264,VALID,0,VALID,24.675,VALID,352,VALID,0.31875,
2009-04-01, 00:02:05,VALID,1003.8,VALID,0,VALID,91.9967,VALID,0,VALID,24.675,VALID,352,VALID,0.340234,
2009-04-01, 00:03:05,VALID,1003.79,VALID,0,VALID,91.928,VALID,0,VALID,24.6945,VALID,350,VALID,0.346484,
2009-04-01, 00:04:05,VALID,1003.78,VALID,0,VALID,91.9204,VALID,0,VALID,24.7159,VALID,351,VALID,0.517578,
2009-04-01, 00:05:05,VALID,1003.76,VALID,0,VALID,91.8899,VALID,0,VALID,24.6945,VALID,351,VALID,0.537891,
2009-04-01, 00:06:05,VALID,1003.75,VALID,0,VALID,91.8594,VALID,0,VALID,24.7177,VALID,349,VALID,0.439844,
2009-04-01, 00:07:05,VALID,1003.7,VALID,0,VALID,91.8899,VALID,0,VALID,24.6556,VALID,347,VALID,0.514063,
2009-04-01, 00:08:05,VALID,1003.71,VALID,0,VALID,91.8288,VALID,0,VALID,24.6769,VALID,347,VALID,0.441406,
2009-04-01, 00:09:05,VALID,1003.66,VALID,0,VALID,91.8594,VALID,0,VALID,24.6556,VALID,347,VALID,0.299219,
2009-04-01, 00:10:05,VALID,1003.66,VALID,0,VALID,91.867,VALID,0,VALID,24.6574,VALID,347,VALID,0.325781,
2009-04-01, 00:11:05,VALID,1003.66,VALID,0,VALID,91.8059,VALID,0,VALID,24.6185,VALID,347,VALID,0.217187,
2009-04-01, 00:12:05,VALID,1003.65,VALID,0,VALID,91.6915,VALID,0,VALID,24.6185,VALID,346,VALID,0.503516,
2009-04-01, 00:13:05,VALID,1003.6,VALID,0,VALID,91.6229,VALID,0,VALID,24.6185,VALID,331,VALID,0.202344,
2009-04-01, 00:14:05,VALID,1003.63,VALID,0,VALID,91.5389,VALID,0,VALID,24.6185,VALID,331,VALID,0.366406,
2009-04-01, 00:15:05,VALID,1003.59,VALID,0,VALID,91.4092,VALID,0,VALID,24.6166,VALID,331,VALID,0.075,
2009-04-01, 00:16:05,VALID,1003.59,VALID,0,VALID,91.0659,VALID,0,VALID,24.6964,VALID,342,VALID,0.160156,
2009-04-01, 00:17:05,VALID,1003.58,VALID,0,VALID,90.8829,VALID,0,VALID,24.7743,VALID,339,VALID,0.530859,
2009-04-01, 00:18:05,VALID,1003.59,VALID,0,VALID,90.5319,VALID,0,VALID,24.8132,VALID,341,VALID,0.325781,
2009-04-01, 00:19:05,VALID,1003.56,VALID,0,VALID,90.3031,VALID,0,VALID,24.8522,VALID,341,VALID,0.346484,
2009-04-01, 00:20:05,VALID,1003.57,VALID,0,VALID,90.1352,VALID,0,VALID,24.8503,VALID,341,VALID,0.2625,
2009-04-01, 00:21:05,VALID,1003.53,VALID,0,VALID,90.0818,VALID,0,VALID,24.8716,VALID,341,VALID,0.350391,
2009-04-01, 00:22:04,VALID,1003.51,VALID,0,VALID,90.12,VALID,0,VALID,24.8503,VALID,341,VALID,0.0644531,
2009-04-01, 00:23:04,VALID,1003.47,VALID,0,VALID,90.0818,VALID,0,VALID,24.8522,VALID,341,VALID,0.333984,
2009-04-01, 00:24:04,VALID,1003.49,VALID,0,VALID,90.0666,VALID,0,VALID,24.8132,VALID,341,VALID,0.380469,
2009-04-01, 00:25:04,VALID,1003.48,VALID,0,VALID,90.0666,VALID,0,VALID,24.7919,VALID,341,VALID,0.409375,
2009-04-01, 00:26:04,VALID,1003.44,VALID,0,VALID,90.1276,VALID,0,VALID,24.7937,VALID,341,VALID,0.199609,
2009-04-01, 00:27:04,VALID,1003.42,VALID,0,VALID,90.1352,VALID,0,VALID,24.7724,VALID,341,VALID,0.222656,
2009-04-01, 00:28:04,VALID,1003.4,VALID,0,VALID,90.2191,VALID,0,VALID,24.8132,VALID,321,VALID,0.239453,
2009-04-01, 00:29:04,VALID,1003.4,VALID,0,VALID,90.1963,VALID,0,VALID,24.8113,VALID,321,VALID,0.326172,
2009-04-01, 00:30:04,VALID,1003.35,VALID,0,VALID,90.1963,VALID,0.100563,VALID,24.8113,VALID,321,VALID,0.210938,
2009-04-01, 00:31:04,VALID,1003.34,VALID,0,VALID,90.2115,VALID,0,VALID,24.8308,VALID,314,VALID,0.617969,
2009-04-01, 00:32:04,VALID,1003.32,VALID,0,VALID,90.1734,VALID,0,VALID,24.8327,VALID,334,VALID,0.415234,
2009-04-01, 00:33:04,VALID,1003.32,VALID,0,VALID,90.2039,VALID,0,VALID,24.8113,VALID,337,VALID,0.591797,
2009-04-01, 00:34:04,VALID,1003.3,VALID,0,VALID,90.2344,VALID,0,VALID,24.8113,VALID,343,VALID,0.610547,
2009-04-01, 00:35:04,VALID,1003.31,VALID,0,VALID,90.2344,VALID,0,VALID,24.79,VALID,3,VALID,0.639063,
2009-04-01, 00:36:04,VALID,1003.28,VALID,0,VALID,90.2573,VALID,0,VALID,24.7937,VALID,355,VALID,0.478125,
2009-04-01, 00:37:04,VALID,1003.25,VALID,0,VALID,90.3717,VALID,0,VALID,24.7548,VALID,355,VALID,0.437891,
2009-04-01, 00:38:04,VALID,1003.25,VALID,0,VALID,90.4785,VALID,0,VALID,24.7159,VALID,343,VALID,0.519141,
2009-04-01, 00:39:04,VALID,1003.23,VALID,0,VALID,90.6616,VALID,0,VALID,24.6556,VALID,345,VALID,0,
2009-04-01, 00:40:04,VALID,1003.22,VALID,0,VALID,90.776,VALID,0,VALID,24.6769,VALID,345,VALID,0.0949219,
2009-04-01, 00:41:04,VALID,1003.22,VALID,0,VALID,90.8676,VALID,0,VALID,24.6361,VALID,345,VALID,0.294922,
2009-04-01, 00:42:04,VALID,1003.18,VALID,0,VALID,90.8829,VALID,0,VALID,24.6574,VALID,345,VALID,0.510938,
2009-04-01, 00:43:04,VALID,1003.19,VALID,0,VALID,90.9591,VALID,0,VALID,24.6166,VALID,346,VALID,0.329297,
2009-04-01, 00:44:04,VALID,1003.17,VALID,0,VALID,90.9668,VALID,0,VALID,24.5972,VALID,346,VALID,0.372266,
2009-04-01, 00:45:04,VALID,1003.18,VALID,0,VALID,91.0202,VALID,0,VALID,24.5972,VALID,349,VALID,0.596094,
2009-04-01, 00:46:04,VALID,1003.18,VALID,0,VALID,90.9973,VALID,0,VALID,24.5777,VALID,350,VALID,0.382422,
2009-04-01, 00:47:04,VALID,1003.16,VALID,0,VALID,90.9973,VALID,0,VALID,24.5388,VALID,350,VALID,0.426953,
2009-04-01, 00:48:04,VALID,1003.15,VALID,0,VALID,91.1346,VALID,0,VALID,24.5193,VALID,350,VALID,0.255469,
2009-04-01, 00:49:04,VALID,1003.16,VALID,0,VALID,91.249,VALID,0,VALID,24.5212,VALID,350,VALID,0.233594,
2009-04-01, 00:50:04,VALID,1003.14,VALID,0,VALID,91.2643,VALID,0,VALID,24.4822,VALID,37,VALID,0.637109,
2009-04-01, 00:51:04,VALID,1003.15,VALID,0,VALID,91.5389,VALID,0,VALID,24.5017,VALID,22,VALID,0.785937,
2009-04-01, 00:52:04,VALID,1003.14,VALID,0,VALID,91.4474,VALID,0,VALID,24.5406,VALID,22,VALID,0.477344,
2009-04-01, 00:53:04,VALID,1003.15,VALID,0,VALID,91.5313,VALID,0,VALID,24.6185,VALID,6,VALID,0.465234,
2009-04-01, 00:54:04,VALID,1003.16,VALID,0,VALID,91.2109,VALID,0,VALID,24.6964,VALID,6,VALID,0.527344,
2009-04-01, 00:55:04,VALID,1003.17,VALID,0,VALID,90.9591,VALID,0,VALID,24.7335,VALID,6,VALID,0.438672,
2009-04-01, 00:56:04,VALID,1003.13,VALID,0,VALID,90.7837,VALID,0.100563,VALID,24.7919,VALID,6,VALID,0.487891,
2009-04-01, 00:57:04,VALID,1003.12,VALID,0,VALID,90.4175,VALID,0,VALID,24.8503,VALID,6,VALID,0.252344,
2009-04-01, 00:58:04,VALID,1003.08,VALID,0,VALID,90.1352,VALID,0.100563,VALID,24.9087,VALID,27,VALID,0.504687,
2009-04-01, 00:59:04,VALID,1003.04,VALID,0,VALID,89.8987,VALID,0,VALID,24.9087,VALID,33,VALID,0.362891,
2009-04-01, 01:00:04,VALID,1002.98,VALID,0,VALID,89.7385,VALID,0,VALID,24.9282,VALID,33,VALID,0.472656,
2009-04-01, 01:01:04,VALID,1003,VALID,0,VALID,89.708,VALID,0.100563,VALID,24.9671,VALID,33,VALID,0.51875,
2009-04-01, 01:02:04,VALID,1002.97,VALID,0,VALID,89.6317,VALID,0,VALID,25.0255,VALID,2,VALID,0.96875,
2009-04-01, 01:03:04,VALID,1002.95,VALID,0,VALID,88.9299,VALID,0,VALID,25.1423,VALID,359,VALID,0.464063,
2009-04-01, 01:04:04,VALID,1002.98,VALID,0,VALID,88.4874,VALID,0.100563,VALID,25.2007,VALID,359,VALID,0.245703,
2009-04-01, 01:05:04,VALID,1002.99,VALID,0,VALID,88.2356,VALID,0.100563,VALID,25.2397,VALID,359,VALID,0.0160156,
2009-04-01, 01:06:04,VALID,1002.98,VALID,0,VALID,88.1212,VALID,0,VALID,25.2397,VALID,359,VALID,0,
2009-04-01, 01:07:04,VALID,1002.99,VALID,0,VALID,88.0525,VALID,0,VALID,25.2397,VALID,359,VALID,0,
2009-04-01, 01:08:04,VALID,1002.96,VALID,0,VALID,88.2051,VALID,0.100563,VALID,25.2202,VALID,351,VALID,0.383984,
2009-04-01, 01:09:04,VALID,1002.94,VALID,0,VALID,88.2585,VALID,0.100563,VALID,25.2007,VALID,347,VALID,0.0316406,
2009-04-01, 01:10:04,VALID,1002.95,VALID,0,VALID,88.228,VALID,0.100563,VALID,25.1618,VALID,347,VALID,0,
2009-04-01, 01:11:04,VALID,1002.93,VALID,0,VALID,88.4416,VALID,0,VALID,25.1034,VALID,347,VALID,0,
2009-04-01, 01:12:04,VALID,1002.93,VALID,0,VALID,88.64,VALID,0,VALID,25.045,VALID,347,VALID,0.276563,
2009-04-01, 01:13:04,VALID,1002.91,VALID,0,VALID,88.7925,VALID,0.100563,VALID,25.006,VALID,347,VALID,0.357031,
2009-04-01, 01:14:04,VALID,1002.93,VALID,0,VALID,89.0138,VALID,0,VALID,24.9671,VALID,347,VALID,0.342187,
2009-04-01, 01:15:04,VALID,1002.93,VALID,0,VALID,89.1664,VALID,0.100563,VALID,24.9068,VALID,347,VALID,0.266797,
2009-04-01, 01:16:04,VALID,1002.97,VALID,0,VALID,89.2198,VALID,0.100563,VALID,24.8873,VALID,347,VALID,0,
2009-04-01, 01:17:04,VALID,1002.99,VALID,0,VALID,89.3571,VALID,0.100563,VALID,24.8873,VALID,347,VALID,0.116406,
2009-04-01, 01:18:04,VALID,1002.96,VALID,0,VALID,89.5325,VALID,0.100563,VALID,24.8892,VALID,347,VALID,0,
2009-04-01, 01:19:04,VALID,1002.96,VALID,0,VALID,89.6241,VALID,0.100563,VALID,24.8503,VALID,347,VALID,0,
2009-04-01, 01:20:04,VALID,1002.94,VALID,0,VALID,89.7538,VALID,0.100563,VALID,24.8308,VALID,347,VALID,0.09375,
2009-04-01, 01:21:04,VALID,1002.87,VALID,0,VALID,89.8072,VALID,0.100563,VALID,24.8113,VALID,347,VALID,0,
2009-04-01, 01:22:04,VALID,1002.88,VALID,0,VALID,89.8682,VALID,0.100563,VALID,24.7724,VALID,347,VALID,0,
2009-04-01, 01:23:04,VALID,1002.86,VALID,0,VALID,89.8987,VALID,0.100563,VALID,24.7335,VALID,347,VALID,0,
2009-04-01, 01:24:04,VALID,1002.83,VALID,0,VALID,89.975,VALID,0.100563,VALID,24.714,VALID,347,VALID,0,
2009-04-01, 01:25:04,VALID,1002.84,VALID,0,VALID,90.0971,VALID,0,VALID,24.675,VALID,347,VALID,0,
2009-04-01, 01:26:04,VALID,1002.82,VALID,0,VALID,90.242,VALID,0,VALID,24.6166,VALID,347,VALID,0.261719,
2009-04-01, 01:27:04,VALID,1002.8,VALID,0,VALID,90.387,VALID,0,VALID,24.5369,VALID,347,VALID,0.325391,
2009-04-01, 01:28:04,VALID,1002.78,VALID,0,VALID,90.5167,VALID,0,VALID,24.5388,VALID,347,VALID,0.304688,
2009-04-01, 01:29:04,VALID,1002.75,VALID,0,VALID,90.6464,VALID,0,VALID,24.4998,VALID,347,VALID,0,
2009-04-01, 01:30:04,VALID,1002.73,VALID,0,VALID,90.7837,VALID,0.100563,VALID,24.4804,VALID,347,VALID,0,
2009-04-01, 01:31:04,VALID,1002.69,VALID,0,VALID,90.86,VALID,0,VALID,24.4609,VALID,347,VALID,0,
2009-04-01, 01:32:04,VALID,1002.71,VALID,0,VALID,91.0202,VALID,0.100563,VALID,24.422,VALID,347,VALID,0,
2009-04-01, 01:33:04,VALID,1002.69,VALID,0,VALID,91.1804,VALID,0.100563,VALID,24.4025,VALID,347,VALID,0,
2009-04-01, 01:34:04,VALID,1002.7,VALID,0,VALID,91.3024,VALID,0.100563,VALID,24.383,VALID,347,VALID,0,
2009-04-01, 01:35:04,VALID,1002.71,VALID,0,VALID,91.4016,VALID,0.100563,VALID,24.3441,VALID,347,VALID,0,
2009-04-01, 01:36:04,VALID,1002.72,VALID,0,VALID,91.4932,VALID,0.100563,VALID,24.2839,VALID,347,VALID,0,
2009-04-01, 01:37:04,VALID,1002.67,VALID,0,VALID,91.5847,VALID,0.100563,VALID,24.307,VALID,347,VALID,0,
2009-04-01, 01:38:04,VALID,1002.67,VALID,0,VALID,91.6686,VALID,0,VALID,24.2468,VALID,347,VALID,0,
2009-04-01, 01:39:04,VALID,1002.64,VALID,0,VALID,91.6991,VALID,0.100563,VALID,24.2273,VALID,347,VALID,0,
2009-04-01, 01:40:04,VALID,1002.61,VALID,0,VALID,91.7297,VALID,0.100563,VALID,24.1689,VALID,347,VALID,0,
2009-04-01, 01:41:04,VALID,1002.58,VALID,0,VALID,91.8136,VALID,0,VALID,24.1494,VALID,347,VALID,0,
2009-04-01, 01:42:04,VALID,1002.56,VALID,0,VALID,91.8975,VALID,0,VALID,24.13,VALID,347,VALID,0.0117188,
2009-04-01, 01:43:04,VALID,1002.51,VALID,0,VALID,92.0043,VALID,0.100563,VALID,24.091,VALID,348,VALID,0.0375,
2009-04-01, 01:44:04,VALID,1002.55,VALID,0,VALID,92.0424,VALID,0,VALID,24.0521,VALID,348,VALID,0.232422,
2009-04-01, 01:45:04,VALID,1002.52,VALID,0,VALID,92.2332,VALID,0.100563,VALID,24.0521,VALID,348,VALID,0.158984,
2009-04-01, 01:46:04,VALID,1002.54,VALID,0,VALID,92.2866,VALID,0.100563,VALID,24.0326,VALID,348,VALID,0,
2009-04-01, 01:47:04,VALID,1002.54,VALID,0,VALID,92.401,VALID,0.100563,VALID,23.9937,VALID,347,VALID,0,
2009-04-01, 01:48:04,VALID,1002.53,VALID,0,VALID,92.4697,VALID,0,VALID,24.0132,VALID,348,VALID,0.0230469,
2009-04-01, 01:49:04,VALID,1002.49,VALID,0,VALID,92.4925,VALID,0.100563,VALID,23.9937,VALID,348,VALID,0,
2009-04-01, 01:50:04,VALID,1002.48,VALID,0,VALID,92.607,VALID,0.100563,VALID,23.9742,VALID,347,VALID,0.235547,
2009-04-01, 01:51:04,VALID,1002.45,VALID,0,VALID,92.7138,VALID,0.100563,VALID,23.9937,VALID,347,VALID,0.0121094,
2009-04-01, 01:52:04,VALID,1002.4,VALID,0,VALID,92.668,VALID,0.100563,VALID,23.9742,VALID,347,VALID,0,
2009-04-01, 01:53:04,VALID,1002.37,VALID,0,VALID,92.6604,VALID,0.100563,VALID,23.9353,VALID,348,VALID,0,
2009-04-01, 01:54:04,VALID,1002.39,VALID,0,VALID,92.6528,VALID,0.100563,VALID,23.9159,VALID,348,VALID,0,
2009-04-01, 01:55:04,VALID,1002.39,VALID,0,VALID,92.668,VALID,0.100563,VALID,23.8964,VALID,347,VALID,0,
2009-04-01, 01:56:04,VALID,1002.39,VALID,0,VALID,92.7367,VALID,0,VALID,23.8575,VALID,347,VALID,0,
2009-04-01, 01:57:04,VALID,1002.42,VALID,0,VALID,92.874,VALID,0,VALID,23.8964,VALID,347,VALID,0,
2009-04-01, 01:58:04,VALID,1002.41,VALID,0,VALID,92.8969,VALID,0.100563,VALID,23.8362,VALID,347,VALID,0,
2009-04-01, 01:59:04,VALID,1002.41,VALID,0,VALID,92.9503,VALID,0.100563,VALID,23.8575,VALID,347,VALID,0,
2009-04-01, 02:00:04,VALID,1002.39,VALID,0,VALID,93.0266,VALID,0,VALID,23.8398,VALID,347,VALID,0,
2009-04-01, 02:01:04,VALID,1002.39,VALID,0,VALID,93.0723,VALID,0,VALID,23.8398,VALID,347,VALID,0,
2009-04-01, 02:02:04,VALID,1002.36,VALID,0,VALID,93.1257,VALID,0,VALID,23.8398,VALID,348,VALID,0,
2009-04-01, 02:03:04,VALID,1002.4,VALID,0,VALID,93.202,VALID,0,VALID,23.8398,VALID,348,VALID,0,
2009-04-01, 02:04:04,VALID,1002.39,VALID,0,VALID,93.1944,VALID,0,VALID,23.8398,VALID,347,VALID,0,
2009-04-01, 02:05:04,VALID,1002.38,VALID,0,VALID,93.1944,VALID,0,VALID,23.7991,VALID,347,VALID,0,
2009-04-01, 02:06:04,VALID,1002.42,VALID,0,VALID,93.2631,VALID,0,VALID,23.7796,VALID,347,VALID,0,
2009-04-01, 02:07:04,VALID,1002.43,VALID,0,VALID,93.2707,VALID,0,VALID,23.7814,VALID,347,VALID,0,
2009-04-01, 02:08:04,VALID,1002.47,VALID,0,VALID,93.347,VALID,0,VALID,23.7796,VALID,348,VALID,0,
2009-04-01, 02:09:04,VALID,1002.48,VALID,0,VALID,93.3317,VALID,0,VALID,23.7814,VALID,347,VALID,0,
2009-04-01, 02:10:04,VALID,1002.48,VALID,0,VALID,93.347,VALID,0,VALID,23.7619,VALID,347,VALID,0,
2009-04-01, 02:11:04,VALID,1002.5,VALID,0,VALID,93.4538,VALID,0,VALID,23.7601,VALID,348,VALID,0,
2009-04-01, 02:12:04,VALID,1002.5,VALID,0,VALID,93.4767,VALID,0,VALID,23.7796,VALID,348,VALID,0,
2009-04-01, 02:13:04,VALID,1002.51,VALID,0,VALID,93.5072,VALID,0,VALID,23.7991,VALID,348,VALID,0,
2009-04-01, 02:14:04,VALID,1002.48,VALID,0,VALID,93.5301,VALID,0.100563,VALID,23.7583,VALID,348,VALID,0,
2009-04-01, 02:15:04,VALID,1002.48,VALID,0,VALID,93.5301,VALID,0,VALID,23.7814,VALID,348,VALID,0,
2009-04-01, 02:16:04,VALID,1002.49,VALID,0,VALID,93.4996,VALID,0.100563,VALID,23.7407,VALID,348,VALID,0,
2009-04-01, 02:17:04,VALID,1002.5,VALID,0,VALID,93.5682,VALID,0,VALID,23.7407,VALID,348,VALID,0,
2009-04-01, 02:18:04,VALID,1002.52,VALID,0,VALID,93.3851,VALID,0.100563,VALID,23.6823,VALID,348,VALID,0,
2009-04-01, 02:19:04,VALID,1002.54,VALID,0,VALID,93.2783,VALID,0,VALID,23.6044,VALID,348,VALID,0,
2009-04-01, 02:20:04,VALID,1002.51,VALID,0,VALID,93.4538,VALID,0.100563,VALID,23.5832,VALID,348,VALID,0,
2009-04-01, 02:21:04,VALID,1002.52,VALID,0,VALID,93.3928,VALID,0,VALID,23.5868,VALID,348,VALID,0,
2009-04-01, 02:22:04,VALID,1002.52,VALID,0,VALID,93.347,VALID,0.100563,VALID,23.5266,VALID,348,VALID,0,
2009-04-01, 02:23:04,VALID,1002.53,VALID,0,VALID,93.4233,VALID,0,VALID,23.5071,VALID,348,VALID,0,
2009-04-01, 02:24:04,VALID,1002.48,VALID,0,VALID,93.4462,VALID,0.100563,VALID,23.4877,VALID,348,VALID,0,
2009-04-01, 02:25:04,VALID,1002.47,VALID,0,VALID,93.5301,VALID,0.100563,VALID,23.4487,VALID,348,VALID,0,
2009-04-01, 02:26:04,VALID,1002.45,VALID,0,VALID,93.6903,VALID,0,VALID,23.4682,VALID,348,VALID,0,
2009-04-01, 02:27:04,VALID,1002.45,VALID,0,VALID,93.6979,VALID,0,VALID,23.4894,VALID,348,VALID,0,
2009-04-01, 02:28:04,VALID,1002.43,VALID,0,VALID,93.7284,VALID,0,VALID,23.5107,VALID,348,VALID,0,
2009-04-01, 02:29:04,VALID,1002.39,VALID,0,VALID,93.7895,VALID,0,VALID,23.4682,VALID,348,VALID,0,
2009-04-01, 02:30:04,VALID,1002.4,VALID,0,VALID,93.8276,VALID,0,VALID,23.5089,VALID,348,VALID,0,
2009-04-01, 02:31:04,VALID,1002.41,VALID,0,VALID,93.8734,VALID,0,VALID,23.5071,VALID,348,VALID,0,
2009-04-01, 02:32:04,VALID,1002.41,VALID,0,VALID,93.9268,VALID,0,VALID,23.546,VALID,348,VALID,0,
2009-04-01, 02:33:04,VALID,1002.4,VALID,0,VALID,93.9954,VALID,0,VALID,23.585,VALID,348,VALID,0,
2009-04-01, 02:34:04,VALID,1002.39,VALID,0,VALID,93.9725,VALID,0,VALID,23.6257,VALID,55,VALID,0.525391,
2009-04-01, 02:35:04,VALID,1002.36,VALID,0,VALID,93.9344,VALID,0,VALID,23.6062,VALID,59,VALID,0.422656,
2009-04-01, 02:36:04,VALID,1002.34,VALID,0,VALID,93.8123,VALID,0,VALID,23.585,VALID,59,VALID,0.447656,
2009-04-01, 02:37:04,VALID,1002.31,VALID,0,VALID,93.82,VALID,0,VALID,23.5868,VALID,66,VALID,0.597266,
2009-04-01, 02:38:04,VALID,1002.29,VALID,0,VALID,93.9191,VALID,0,VALID,23.585,VALID,68,VALID,0.398047,
2009-04-01, 02:39:04,VALID,1002.3,VALID,0,VALID,93.9344,VALID,0,VALID,23.6239,VALID,68,VALID,0.332031,
2009-04-01, 02:40:04,VALID,1002.27,VALID,0,VALID,93.9649,VALID,0,VALID,23.6434,VALID,67,VALID,0.389062,
2009-04-01, 02:41:04,VALID,1002.22,VALID,0,VALID,94.0336,VALID,0,VALID,23.7035,VALID,67,VALID,0.369531,
2009-04-01, 02:42:04,VALID,1002.23,VALID,0,VALID,94.0565,VALID,0,VALID,23.7832,VALID,67,VALID,0.365234,
2009-04-01, 02:43:04,VALID,1002.22,VALID,0,VALID,93.9497,VALID,0,VALID,23.7619,VALID,67,VALID,0.519141,
2009-04-01, 02:44:04,VALID,1002.21,VALID,0,VALID,93.9497,VALID,0,VALID,23.7814,VALID,67,VALID,0.318359,
2009-04-01, 02:45:04,VALID,1002.2,VALID,0,VALID,93.881,VALID,0,VALID,23.8009,VALID,67,VALID,0.3875,
2009-04-01, 02:46:04,VALID,1002.21,VALID,0,VALID,93.8886,VALID,0,VALID,23.8009,VALID,67,VALID,0.332812,
2009-04-01, 02:47:04,VALID,1002.2,VALID,0,VALID,93.8429,VALID,0,VALID,23.8398,VALID,68,VALID,0.697266,
2009-04-01, 02:48:04,VALID,1002.19,VALID,0,VALID,93.8429,VALID,0,VALID,23.8593,VALID,70,VALID,0.642578,
2009-04-01, 02:49:04,VALID,1002.18,VALID,0,VALID,93.8352,VALID,0,VALID,23.8982,VALID,71,VALID,0.510156,
2009-04-01, 02:50:04,VALID,1002.15,VALID,0,VALID,93.7666,VALID,0,VALID,23.8787,VALID,71,VALID,0.428125,
2009-04-01, 02:51:04,VALID,1002.16,VALID,0,VALID,93.6979,VALID,0,VALID,23.8593,VALID,71,VALID,0.307813,
2009-04-01, 02:52:04,VALID,1002.13,VALID,0,VALID,93.6598,VALID,0,VALID,23.8593,VALID,71,VALID,0.252344,
2009-04-01, 02:53:04,VALID,1002.11,VALID,0,VALID,93.5987,VALID,0,VALID,23.8398,VALID,71,VALID,0.240625,
2009-04-01, 02:54:04,VALID,1002.12,VALID,0,VALID,93.614,VALID,0,VALID,23.8398,VALID,71,VALID,0.3625,
2009-04-01, 02:55:04,VALID,1002.07,VALID,0,VALID,93.553,VALID,0,VALID,23.8203,VALID,71,VALID,0.353906,
2009-04-01, 02:56:04,VALID,1002.07,VALID,0,VALID,93.469,VALID,0,VALID,23.7814,VALID,71,VALID,0.439453,
2009-04-01, 02:57:04,VALID,1002.04,VALID,0,VALID,93.4614,VALID,0,VALID,23.7425,VALID,68,VALID,0.511328,
2009-04-01, 02:58:04,VALID,1002.03,VALID,0,VALID,93.4538,VALID,0,VALID,23.7017,VALID,65,VALID,0.301953,
2009-04-01, 02:59:04,VALID,1001.99,VALID,0,VALID,93.5377,VALID,0,VALID,23.723,VALID,65,VALID,0.264844,
2009-04-01, 03:00:04,VALID,1002,VALID,0,VALID,93.6292,VALID,0,VALID,23.7425,VALID,65,VALID,0.455859,
2009-04-01, 03:01:04,VALID,1002,VALID,0,VALID,93.7513,VALID,0,VALID,23.7814,VALID,65,VALID,0.262891,
2009-04-01, 03:02:04,VALID,1002,VALID,0,VALID,93.7132,VALID,0,VALID,23.7619,VALID,65,VALID,0.201562,
2009-04-01, 03:03:04,VALID,1002.03,VALID,0,VALID,93.7208,VALID,0,VALID,23.7619,VALID,65,VALID,0.105078,
2009-04-01, 03:04:04,VALID,1002.04,VALID,0,VALID,93.6979,VALID,0,VALID,23.7407,VALID,65,VALID,0,
2009-04-01, 03:05:04,VALID,1002.04,VALID,0,VALID,93.6674,VALID,0,VALID,23.7425,VALID,65,VALID,0.0121094,
2009-04-01, 03:06:04,VALID,1002.04,VALID,0,VALID,93.6521,VALID,0,VALID,23.7035,VALID,65,VALID,0.147266,
2009-04-01, 03:07:04,VALID,1002.03,VALID,0,VALID,93.7208,VALID,0,VALID,23.7035,VALID,65,VALID,0.28125,
2009-04-01, 03:08:04,VALID,1002.01,VALID,0,VALID,93.7513,VALID,0,VALID,23.723,VALID,65,VALID,0.237891,
2009-04-01, 03:09:04,VALID,1001.99,VALID,0,VALID,93.82,VALID,0,VALID,23.723,VALID,65,VALID,0.383594,
2009-04-01, 03:10:04,VALID,1001.98,VALID,0,VALID,93.8047,VALID,0,VALID,23.7425,VALID,65,VALID,0.493359,
2009-04-01, 03:11:04,VALID,1001.99,VALID,0,VALID,93.8657,VALID,0,VALID,23.7619,VALID,65,VALID,0.287109,
2009-04-01, 03:12:04,VALID,1001.98,VALID,0,VALID,93.8886,VALID,0,VALID,23.7407,VALID,65,VALID,0.310547,
2009-04-01, 03:13:04,VALID,1002.01,VALID,0,VALID,93.8581,VALID,0,VALID,23.7832,VALID,65,VALID,0.247266,
2009-04-01, 03:14:04,VALID,1002,VALID,0,VALID,93.8886,VALID,0,VALID,23.7814,VALID,65,VALID,0,
2009-04-01, 03:15:04,VALID,1002.02,VALID,0,VALID,93.9039,VALID,0,VALID,23.7601,VALID,65,VALID,0.0289063,
2009-04-01, 03:16:04,VALID,1002.05,VALID,0,VALID,93.8657,VALID,0,VALID,23.7814,VALID,65,VALID,0,
2009-04-01, 03:17:04,VALID,1002.03,VALID,0,VALID,93.8429,VALID,0,VALID,23.7814,VALID,65,VALID,0,
2009-04-01, 03:18:04,VALID,1002.06,VALID,0,VALID,93.8352,VALID,0,VALID,23.7425,VALID,65,VALID,0,
2009-04-01, 03:19:04,VALID,1002.03,VALID,0,VALID,93.82,VALID,0,VALID,23.7212,VALID,65,VALID,0,
2009-04-01, 03:20:04,VALID,1002.01,VALID,0,VALID,93.8505,VALID,0,VALID,23.7017,VALID,65,VALID,0.373047,
2009-04-01, 03:21:04,VALID,1001.97,VALID,0,VALID,93.7437,VALID,0,VALID,23.7035,VALID,65,VALID,0.492969,
2009-04-01, 03:22:04,VALID,1001.95,VALID,0,VALID,93.614,VALID,0,VALID,23.6452,VALID,63,VALID,0.6125,
2009-04-01, 03:23:04,VALID,1001.91,VALID,0,VALID,93.5453,VALID,0,VALID,23.5868,VALID,46,VALID,0.681641,
2009-04-01, 03:24:04,VALID,1001.92,VALID,0,VALID,93.4767,VALID,0,VALID,23.5071,VALID,41,VALID,0.678125,
2009-04-01, 03:25:04,VALID,1001.9,VALID,0,VALID,93.4614,VALID,0,VALID,23.4505,VALID,33,VALID,0.726563,
2009-04-01, 03:26:04,VALID,1001.88,VALID,0,VALID,93.6064,VALID,0,VALID,23.4505,VALID,15,VALID,0.589453,
2009-04-01, 03:27:04,VALID,1001.89,VALID,0,VALID,93.8505,VALID,0,VALID,23.4894,VALID,12,VALID,0.512891,
2009-04-01, 03:28:04,VALID,1001.85,VALID,0,VALID,94.0412,VALID,0,VALID,23.5284,VALID,12,VALID,0.682031,
2009-04-01, 03:29:04,VALID,1001.81,VALID,0,VALID,94.1251,VALID,0,VALID,23.5673,VALID,11,VALID,0.691406,
2009-04-01, 03:30:04,VALID,1001.8,VALID,0,VALID,94.1328,VALID,0,VALID,23.5868,VALID,11,VALID,0.740234,
2009-04-01, 03:31:04,VALID,1001.81,VALID,0,VALID,94.0946,VALID,0,VALID,23.5868,VALID,11,VALID,0.681641,
2009-04-01, 03:32:04,VALID,1001.79,VALID,0,VALID,94.087,VALID,0,VALID,23.5868,VALID,10,VALID,0.635547,
2009-04-01, 03:33:04,VALID,1001.77,VALID,0,VALID,94.087,VALID,0,VALID,23.5655,VALID,8,VALID,0.688281,
2009-04-01, 03:34:04,VALID,1001.79,VALID,0,VALID,94.1404,VALID,0,VALID,23.5673,VALID,7,VALID,0.694922,
2009-04-01, 03:35:04,VALID,1001.77,VALID,0,VALID,94.1099,VALID,0,VALID,23.5478,VALID,7,VALID,0.610937,
2009-04-01, 03:36:04,VALID,1001.79,VALID,0,VALID,94.1099,VALID,0,VALID,23.5478,VALID,7,VALID,0.434375,
2009-04-01, 03:37:04,VALID,1001.77,VALID,0,VALID,94.087,VALID,0,VALID,23.5284,VALID,7,VALID,0.367188,
2009-04-01, 03:38:04,VALID,1001.8,VALID,0,VALID,94.0946,VALID,0,VALID,23.4682,VALID,7,VALID,0.474609,
2009-04-01, 03:39:04,VALID,1001.8,VALID,0,VALID,94.0641,VALID,0,VALID,23.47,VALID,7,VALID,0.201953,
2009-04-01, 03:40:04,VALID,1001.81,VALID,0,VALID,94.1404,VALID,0,VALID,23.4505,VALID,7,VALID,0.0195313,
2009-04-01, 03:41:04,VALID,1001.84,VALID,0,VALID,94.1175,VALID,0,VALID,23.4311,VALID,7,VALID,0,
2009-04-01, 03:42:04,VALID,1001.82,VALID,0,VALID,94.1175,VALID,0,VALID,23.4311,VALID,7,VALID,0.0644531,
2009-04-01, 03:43:04,VALID,1001.81,VALID,0,VALID,94.1251,VALID,0,VALID,23.4116,VALID,7,VALID,0.239063,
2009-04-01, 03:44:04,VALID,1001.78,VALID,0,VALID,94.1404,VALID,0,VALID,23.4134,VALID,7,VALID,0,
2009-04-01, 03:45:04,VALID,1001.78,VALID,0,VALID,94.1099,VALID,0,VALID,23.3921,VALID,7,VALID,0.253516,
2009-04-01, 03:46:04,VALID,1001.77,VALID,0,VALID,94.1785,VALID,0,VALID,23.3727,VALID,7,VALID,0.0015625,
2009-04-01, 03:47:04,VALID,1001.75,VALID,0,VALID,94.148,VALID,0,VALID,23.3532,VALID,7,VALID,0.0671875,